Location: Unspecified
(50.7693°N, 0.0000°E)
Time: 13:49:11
(UTC+00:00)

deb Explorer IX - Pass Details

Date: 19 June 2019
Orbit: 539 x 1112 km, 38.8° (Epoch: 20 July)

Event Time Altitude Azimuth Distance (km) Brightness Sun altitude
Rises 19:45:24 0° 264° (W) 3,850 ? 3.1°
Reaches altitude 10° 19:49:26 10° 244° (WSW) 2,811 ? 2.5°
Maximum altitude 19:53:09 15° 211° (SSW) 2,335 ? 2.1°
Drops below altitude 10° 19:56:39 10° 177° (S) 2,601 ? 1.6°
Sets 20:00:10 0° 155° (SSE) 3,415 ? 1.2°
